Year,Month,Day,Hour,Minute,Value (Times are PST for temperature in C)
2017,08,03,00,00,22.00
2017,08,03,00,01,22.00
2017,08,03,00,02,22.00
2017,08,03,00,03,21.90
2017,08,03,00,04,21.90
2017,08,03,00,05,21.90
2017,08,03,00,06,21.90
2017,08,03,00,07,21.80
2017,08,03,00,08,21.80
2017,08,03,00,09,21.80
2017,08,03,00,10,21.80
2017,08,03,00,11,21.80
2017,08,03,00,12,21.80
2017,08,03,00,13,21.70
2017,08,03,00,14,21.70
2017,08,03,00,15,21.70
2017,08,03,00,16,21.70
2017,08,03,00,17,21.70
2017,08,03,00,18,21.70
2017,08,03,00,19,21.70
2017,08,03,00,20,21.70
2017,08,03,00,21,21.70
2017,08,03,00,22,21.70
2017,08,03,00,23,21.70
2017,08,03,00,24,21.70
2017,08,03,00,25,21.70
2017,08,03,00,26,21.70
2017,08,03,00,27,21.70
2017,08,03,00,28,21.70
2017,08,03,00,29,21.70
2017,08,03,00,30,21.70
2017,08,03,00,31,21.70
2017,08,03,00,32,21.70
2017,08,03,00,33,21.70
2017,08,03,00,34,21.70
2017,08,03,00,35,21.70
2017,08,03,00,36,21.70
2017,08,03,00,37,21.70
2017,08,03,00,38,21.70
2017,08,03,00,39,21.70
2017,08,03,00,40,21.60
2017,08,03,00,41,21.60
2017,08,03,00,42,21.60
2017,08,03,00,43,21.60
2017,08,03,00,44,21.60
2017,08,03,00,45,21.50
2017,08,03,00,46,21.50
2017,08,03,00,47,21.40
2017,08,03,00,48,21.40
2017,08,03,00,49,21.40
2017,08,03,00,50,21.30
2017,08,03,00,51,21.30
2017,08,03,00,52,21.30
2017,08,03,00,53,21.30
2017,08,03,00,54,21.30
2017,08,03,00,55,21.40
2017,08,03,00,56,21.40
2017,08,03,00,57,21.40
2017,08,03,00,58,21.40
2017,08,03,00,59,21.40
2017,08,03,01,00,21.40
2017,08,03,01,01,21.40
2017,08,03,01,02,21.40
2017,08,03,01,03,21.40
2017,08,03,01,04,21.50
2017,08,03,01,05,21.50
2017,08,03,01,06,21.50
2017,08,03,01,07,21.50
2017,08,03,01,08,21.50
2017,08,03,01,09,21.50
2017,08,03,01,10,21.50
2017,08,03,01,11,21.50
2017,08,03,01,12,21.40
2017,08,03,01,13,21.40
2017,08,03,01,14,21.40
2017,08,03,01,15,21.40
2017,08,03,01,16,21.40
2017,08,03,01,17,21.40
2017,08,03,01,18,21.30
2017,08,03,01,19,21.30
2017,08,03,01,20,21.30
2017,08,03,01,21,21.30
2017,08,03,01,22,21.30
2017,08,03,01,23,21.30
2017,08,03,01,24,21.30
2017,08,03,01,25,21.30
2017,08,03,01,26,21.30
2017,08,03,01,27,21.30
2017,08,03,01,28,21.30
2017,08,03,01,29,21.30
2017,08,03,01,30,21.30
2017,08,03,01,31,21.30
2017,08,03,01,32,21.30
2017,08,03,01,33,21.30
2017,08,03,01,34,21.30
2017,08,03,01,35,21.30
2017,08,03,01,36,21.30
2017,08,03,01,37,21.40
2017,08,03,01,38,21.40
2017,08,03,01,39,21.40
2017,08,03,01,40,21.30
2017,08,03,01,41,21.40
2017,08,03,01,42,21.40
2017,08,03,01,43,21.40
2017,08,03,01,44,21.40
2017,08,03,01,45,21.40
2017,08,03,01,46,21.40
2017,08,03,01,47,21.40
2017,08,03,01,48,21.30
2017,08,03,01,49,21.40
2017,08,03,01,50,21.40
2017,08,03,01,51,21.30
2017,08,03,01,52,21.30
2017,08,03,01,53,21.30
2017,08,03,01,54,21.30
2017,08,03,01,55,21.30
2017,08,03,01,56,21.30
2017,08,03,01,57,21.20
2017,08,03,01,58,21.20
2017,08,03,01,59,21.10
2017,08,03,02,00,21.10
2017,08,03,02,01,21.10
2017,08,03,02,02,21.00
2017,08,03,02,03,20.90
2017,08,03,02,04,20.90
2017,08,03,02,05,20.90
2017,08,03,02,06,20.80
2017,08,03,02,07,20.80
2017,08,03,02,08,20.70
2017,08,03,02,09,20.70
2017,08,03,02,10,20.60
2017,08,03,02,11,20.60
2017,08,03,02,12,20.60
2017,08,03,02,13,20.60
2017,08,03,02,14,20.60
2017,08,03,02,15,20.60
2017,08,03,02,16,20.50
2017,08,03,02,17,20.50
2017,08,03,02,18,20.50
2017,08,03,02,19,20.50
2017,08,03,02,20,20.40
2017,08,03,02,21,20.40
2017,08,03,02,22,20.40
2017,08,03,02,23,20.30
2017,08,03,02,24,20.30
2017,08,03,02,25,20.20
2017,08,03,02,26,20.10
2017,08,03,02,27,20.00
2017,08,03,02,28,19.90
2017,08,03,02,29,19.90
2017,08,03,02,30,19.80
2017,08,03,02,31,19.70
2017,08,03,02,32,19.70
2017,08,03,02,33,19.60
2017,08,03,02,34,19.60
2017,08,03,02,35,19.50
2017,08,03,02,36,19.50
2017,08,03,02,37,19.50
2017,08,03,02,38,19.40
2017,08,03,02,39,19.40
2017,08,03,02,40,19.30
2017,08,03,02,41,19.30
2017,08,03,02,42,19.30
2017,08,03,02,43,19.20
2017,08,03,02,44,19.20
2017,08,03,02,45,19.20
2017,08,03,02,46,19.10
2017,08,03,02,47,19.10
2017,08,03,02,48,19.10
2017,08,03,02,49,19.00
2017,08,03,02,50,19.00
2017,08,03,02,51,19.00
2017,08,03,02,52,19.00
2017,08,03,02,53,18.90
2017,08,03,02,54,18.90
2017,08,03,02,55,18.90
2017,08,03,02,56,18.80
2017,08,03,02,57,18.80
2017,08,03,02,58,18.80
2017,08,03,02,59,18.80
2017,08,03,03,00,18.70
2017,08,03,03,01,18.70
2017,08,03,03,02,18.60
2017,08,03,03,03,18.60
2017,08,03,03,04,18.60
2017,08,03,03,05,18.50
2017,08,03,03,06,18.50
2017,08,03,03,07,18.50
2017,08,03,03,08,18.40
2017,08,03,03,09,18.40
2017,08,03,03,10,18.40
2017,08,03,03,11,18.30
2017,08,03,03,12,18.30
2017,08,03,03,13,18.30
2017,08,03,03,14,18.30
2017,08,03,03,15,18.20
2017,08,03,03,16,18.20
2017,08,03,03,17,18.20
2017,08,03,03,18,18.20
2017,08,03,03,19,18.10
2017,08,03,03,20,18.10
2017,08,03,03,21,18.00
2017,08,03,03,22,18.00
2017,08,03,03,23,17.90
2017,08,03,03,24,17.90
2017,08,03,03,25,17.90
2017,08,03,03,26,17.90
2017,08,03,03,27,17.90
2017,08,03,03,28,17.90
2017,08,03,03,29,17.80
2017,08,03,03,30,17.80
2017,08,03,03,31,17.80
2017,08,03,03,32,17.80
2017,08,03,03,33,17.70
2017,08,03,03,34,17.70
2017,08,03,03,35,17.70
2017,08,03,03,36,17.60
2017,08,03,03,37,17.60
2017,08,03,03,38,17.60
2017,08,03,03,39,17.50
2017,08,03,03,40,17.50
2017,08,03,03,41,17.40
2017,08,03,03,42,17.40
2017,08,03,03,43,17.40
2017,08,03,03,44,17.40
2017,08,03,03,45,17.40
2017,08,03,03,46,17.40
2017,08,03,03,47,17.40
2017,08,03,03,48,17.40
2017,08,03,03,49,17.40
2017,08,03,03,50,17.40
2017,08,03,03,51,17.40
2017,08,03,03,52,17.40
2017,08,03,03,53,17.40
2017,08,03,03,54,17.40
2017,08,03,03,55,17.30
2017,08,03,03,56,17.30
2017,08,03,03,57,17.30
2017,08,03,03,58,17.30
2017,08,03,03,59,17.30
2017,08,03,04,00,17.30
2017,08,03,04,01,17.20
2017,08,03,04,02,17.20
2017,08,03,04,03,17.20
2017,08,03,04,04,17.20
2017,08,03,04,05,17.20
2017,08,03,04,06,17.20
2017,08,03,04,07,17.20
2017,08,03,04,08,17.20
2017,08,03,04,09,17.20
2017,08,03,04,10,17.20
2017,08,03,04,11,17.20
2017,08,03,04,12,17.20
2017,08,03,04,13,17.20
2017,08,03,04,14,17.20
2017,08,03,04,15,17.20
2017,08,03,04,16,17.10
2017,08,03,04,17,17.10
2017,08,03,04,18,17.20
2017,08,03,04,19,17.10
2017,08,03,04,20,17.10
2017,08,03,04,21,17.10
2017,08,03,04,22,17.10
2017,08,03,04,23,17.10
2017,08,03,04,24,17.10
2017,08,03,04,25,17.10
2017,08,03,04,26,17.10
2017,08,03,04,27,17.10
2017,08,03,04,28,17.00
2017,08,03,04,29,17.00
2017,08,03,04,30,17.00
2017,08,03,04,31,17.00
2017,08,03,04,32,17.00
2017,08,03,04,33,16.90
2017,08,03,04,34,16.90
2017,08,03,04,35,16.90
2017,08,03,04,36,16.90
2017,08,03,04,37,16.90
2017,08,03,04,38,16.90
2017,08,03,04,39,16.90
2017,08,03,04,40,16.90
2017,08,03,04,41,16.80
2017,08,03,04,42,16.80
2017,08,03,04,43,16.80
2017,08,03,04,44,16.80
2017,08,03,04,45,16.80
2017,08,03,04,46,16.80
2017,08,03,04,47,16.80
2017,08,03,04,48,16.80
2017,08,03,04,49,16.80
2017,08,03,04,50,16.80
2017,08,03,04,51,16.80
2017,08,03,04,52,16.80
2017,08,03,04,53,16.80
2017,08,03,04,54,16.80
2017,08,03,04,55,16.70
2017,08,03,04,56,16.70
2017,08,03,04,57,16.70
2017,08,03,04,58,16.70
2017,08,03,04,59,16.70
2017,08,03,05,00,16.70
2017,08,03,05,01,16.60
2017,08,03,05,02,16.60
2017,08,03,05,03,16.60
2017,08,03,05,04,16.60
2017,08,03,05,05,16.50
2017,08,03,05,06,16.50
2017,08,03,05,07,16.50
2017,08,03,05,08,16.40
2017,08,03,05,09,16.40
2017,08,03,05,10,16.40
2017,08,03,05,11,16.40
2017,08,03,05,12,16.40
2017,08,03,05,13,16.40
2017,08,03,05,14,16.40
2017,08,03,05,15,16.40
2017,08,03,05,16,16.40
2017,08,03,05,17,16.40
2017,08,03,05,18,16.40
2017,08,03,05,19,16.30
2017,08,03,05,20,16.30
2017,08,03,05,21,16.30
2017,08,03,05,22,16.30
2017,08,03,05,23,16.30
2017,08,03,05,24,16.30
2017,08,03,05,25,16.30
2017,08,03,05,26,16.30
2017,08,03,05,27,16.20
2017,08,03,05,28,16.20
2017,08,03,05,29,16.20
2017,08,03,05,30,16.20
2017,08,03,05,31,16.20
2017,08,03,05,32,16.10
2017,08,03,05,33,16.10
2017,08,03,05,34,16.10
2017,08,03,05,35,16.10
2017,08,03,05,36,16.10
2017,08,03,05,37,16.10
2017,08,03,05,38,16.10
2017,08,03,05,39,16.10
2017,08,03,05,40,16.00
2017,08,03,05,41,16.00
2017,08,03,05,42,16.00
2017,08,03,05,43,16.00
2017,08,03,05,44,16.00
2017,08,03,05,45,16.00
2017,08,03,05,46,16.00
2017,08,03,05,47,16.00
2017,08,03,05,48,16.00
2017,08,03,05,49,16.00
2017,08,03,05,50,16.00
2017,08,03,05,51,16.00
2017,08,03,05,52,16.00
2017,08,03,05,53,16.00
2017,08,03,05,54,16.00
2017,08,03,05,55,16.00
2017,08,03,05,56,16.00
2017,08,03,05,57,16.00
2017,08,03,05,58,15.90
2017,08,03,05,59,15.90
2017,08,03,06,00,15.90
2017,08,03,06,01,15.90
2017,08,03,06,02,15.90
2017,08,03,06,03,15.90
2017,08,03,06,04,15.80
2017,08,03,06,05,15.80
2017,08,03,06,06,15.80
2017,08,03,06,07,15.80
2017,08,03,06,08,15.80
2017,08,03,06,09,15.80
2017,08,03,06,10,15.80
2017,08,03,06,11,15.70
2017,08,03,06,12,15.70
2017,08,03,06,13,15.70
2017,08,03,06,14,15.70
2017,08,03,06,15,15.70
2017,08,03,06,16,15.70
2017,08,03,06,17,15.70
2017,08,03,06,18,15.70
2017,08,03,06,19,15.70
2017,08,03,06,20,15.70
2017,08,03,06,21,15.70
2017,08,03,06,22,15.70
2017,08,03,06,23,15.70
2017,08,03,06,24,15.70
2017,08,03,06,25,15.70
2017,08,03,06,26,15.60
2017,08,03,06,27,15.60
2017,08,03,06,28,15.60
2017,08,03,06,29,15.60
2017,08,03,06,30,15.60
2017,08,03,06,31,15.60
2017,08,03,06,32,15.60
2017,08,03,06,33,15.60
2017,08,03,06,34,15.60
2017,08,03,06,35,15.70
2017,08,03,06,36,15.70
2017,08,03,06,37,15.70
2017,08,03,06,38,15.70
2017,08,03,06,39,15.60
2017,08,03,06,40,15.60
2017,08,03,06,41,15.60
2017,08,03,06,42,15.70
2017,08,03,06,43,15.70
2017,08,03,06,44,15.70
2017,08,03,06,45,15.70
2017,08,03,06,46,15.70
2017,08,03,06,47,15.70
2017,08,03,06,48,15.70
2017,08,03,06,49,15.70
2017,08,03,06,50,15.70
2017,08,03,06,51,15.70
2017,08,03,06,52,15.70
2017,08,03,06,53,15.70
2017,08,03,06,54,15.70
2017,08,03,06,55,15.80
2017,08,03,06,56,15.80
2017,08,03,06,57,15.80
2017,08,03,06,58,15.80
2017,08,03,06,59,15.80
2017,08,03,07,00,15.90
2017,08,03,07,01,15.90
2017,08,03,07,02,15.90
2017,08,03,07,03,15.90
2017,08,03,07,04,16.00
2017,08,03,07,05,16.00
2017,08,03,07,06,16.00
2017,08,03,07,07,16.10
2017,08,03,07,08,16.10
2017,08,03,07,09,16.20
2017,08,03,07,10,16.20
2017,08,03,07,11,16.30
2017,08,03,07,12,16.30
2017,08,03,07,13,16.40
2017,08,03,07,14,16.50
2017,08,03,07,15,16.50
2017,08,03,07,16,16.60
2017,08,03,07,17,16.70
2017,08,03,07,18,16.80
2017,08,03,07,19,16.90
2017,08,03,07,20,17.00
2017,08,03,07,21,17.10
2017,08,03,07,22,17.20
2017,08,03,07,23,17.30
2017,08,03,07,24,17.30
2017,08,03,07,25,17.40
2017,08,03,07,26,17.50
2017,08,03,07,27,17.50
2017,08,03,07,28,17.50
2017,08,03,07,29,17.60
2017,08,03,07,30,17.60
2017,08,03,07,31,17.70
2017,08,03,07,32,17.70
2017,08,03,07,33,17.80
2017,08,03,07,34,17.90
2017,08,03,07,35,17.90
2017,08,03,07,36,18.00
2017,08,03,07,37,18.10
2017,08,03,07,38,18.10
2017,08,03,07,39,18.20
2017,08,03,07,40,18.30
2017,08,03,07,41,18.40
2017,08,03,07,42,18.50
2017,08,03,07,43,18.50
2017,08,03,07,44,18.60
2017,08,03,07,45,18.60
2017,08,03,07,46,18.70
2017,08,03,07,47,18.70
2017,08,03,07,48,18.80
2017,08,03,07,49,18.80
2017,08,03,07,50,18.90
2017,08,03,07,51,18.90
2017,08,03,07,52,19.00
2017,08,03,07,53,19.10
2017,08,03,07,54,19.10
2017,08,03,07,55,19.10
2017,08,03,07,56,19.20
2017,08,03,07,57,19.20
2017,08,03,07,58,19.20
2017,08,03,07,59,19.20
2017,08,03,08,00,19.30
2017,08,03,08,01,19.30
2017,08,03,08,02,19.30
2017,08,03,08,03,19.30
2017,08,03,08,04,19.40
2017,08,03,08,05,19.40
2017,08,03,08,06,19.40
2017,08,03,08,07,19.40
2017,08,03,08,08,19.50
2017,08,03,08,09,19.50
2017,08,03,08,10,19.60
2017,08,03,08,11,19.60
2017,08,03,08,12,19.60
2017,08,03,08,13,19.70
2017,08,03,08,14,19.70
2017,08,03,08,15,19.80
2017,08,03,08,16,19.80
2017,08,03,08,17,19.90
2017,08,03,08,18,19.90
2017,08,03,08,19,20.00
2017,08,03,08,20,20.00
2017,08,03,08,21,20.10
2017,08,03,08,22,20.10
2017,08,03,08,23,20.10
2017,08,03,08,24,20.20
2017,08,03,08,25,20.20
2017,08,03,08,26,20.30
2017,08,03,08,27,20.30
2017,08,03,08,28,20.30
2017,08,03,08,29,20.30
2017,08,03,08,30,20.30
2017,08,03,08,31,20.40
2017,08,03,08,32,20.40
2017,08,03,08,33,20.40
2017,08,03,08,34,20.40
2017,08,03,08,35,20.40
2017,08,03,08,36,20.40
2017,08,03,08,37,20.40
2017,08,03,08,38,20.40
2017,08,03,08,39,20.40
2017,08,03,08,40,20.40
2017,08,03,08,41,20.40
2017,08,03,08,42,20.40
2017,08,03,08,43,20.40
2017,08,03,08,44,20.50
2017,08,03,08,45,20.40
2017,08,03,08,46,20.50
2017,08,03,08,47,20.50
2017,08,03,08,48,20.50
2017,08,03,08,49,20.60
2017,08,03,08,50,20.60
2017,08,03,08,51,20.70
2017,08,03,08,52,20.70
2017,08,03,08,53,20.70
2017,08,03,08,54,20.80
2017,08,03,08,55,20.80
2017,08,03,08,56,20.80
2017,08,03,08,57,20.80
2017,08,03,08,58,20.80
2017,08,03,08,59,20.90
2017,08,03,09,00,20.90
2017,08,03,09,01,20.90
2017,08,03,09,02,20.90
2017,08,03,09,03,21.00
2017,08,03,09,04,21.00
2017,08,03,09,05,21.10
2017,08,03,09,06,21.10
2017,08,03,09,07,21.00
2017,08,03,09,08,20.90
2017,08,03,09,09,20.90
2017,08,03,09,10,20.90
2017,08,03,09,11,21.00
2017,08,03,09,12,21.00
2017,08,03,09,13,21.10
2017,08,03,09,14,21.20
2017,08,03,09,15,21.20
2017,08,03,09,16,21.20
2017,08,03,09,17,21.30
2017,08,03,09,18,21.30
2017,08,03,09,19,21.30
2017,08,03,09,20,21.30
2017,08,03,09,21,21.30
2017,08,03,09,22,21.30
2017,08,03,09,23,21.30
2017,08,03,09,24,21.30
2017,08,03,09,25,21.30
2017,08,03,09,26,21.20
2017,08,03,09,27,21.20
2017,08,03,09,28,21.10
2017,08,03,09,29,21.10
2017,08,03,09,30,21.10
2017,08,03,09,31,21.10
2017,08,03,09,32,21.10
2017,08,03,09,33,21.10
2017,08,03,09,34,21.10
2017,08,03,09,35,21.00
2017,08,03,09,36,21.00
2017,08,03,09,37,21.00
2017,08,03,09,38,21.00
2017,08,03,09,39,21.00
2017,08,03,09,40,21.00
2017,08,03,09,41,21.00
2017,08,03,09,42,21.00
2017,08,03,09,43,21.10
2017,08,03,09,44,21.10
2017,08,03,09,45,21.20
2017,08,03,09,46,21.20
2017,08,03,09,47,21.20
2017,08,03,09,48,21.30
2017,08,03,09,49,21.30
2017,08,03,09,50,21.30
2017,08,03,09,51,21.30
2017,08,03,09,52,21.30
2017,08,03,09,53,21.30
2017,08,03,09,54,21.40
2017,08,03,09,55,21.40
2017,08,03,09,56,21.40
2017,08,03,09,57,21.40
2017,08,03,09,58,21.40
2017,08,03,09,59,21.50
2017,08,03,10,00,21.60
2017,08,03,10,01,21.60
2017,08,03,10,02,21.70
2017,08,03,10,03,21.70
2017,08,03,10,04,21.70
2017,08,03,10,05,21.80
2017,08,03,10,06,21.80
2017,08,03,10,07,21.90
2017,08,03,10,08,21.90
2017,08,03,10,09,21.90
2017,08,03,10,10,21.90
2017,08,03,10,11,21.90
2017,08,03,10,12,22.00
2017,08,03,10,13,22.00
2017,08,03,10,14,22.00
2017,08,03,10,15,22.10
2017,08,03,10,16,22.10
2017,08,03,10,17,22.10
2017,08,03,10,18,22.10
2017,08,03,10,19,22.20
2017,08,03,10,20,22.10
2017,08,03,10,21,22.10
2017,08,03,10,22,22.10
2017,08,03,10,23,22.10
2017,08,03,10,24,22.20
2017,08,03,10,25,22.20
2017,08,03,10,26,22.20
2017,08,03,10,27,22.30
2017,08,03,10,28,22.30
2017,08,03,10,29,22.40
2017,08,03,10,30,22.40
2017,08,03,10,31,22.40
2017,08,03,10,32,22.40
2017,08,03,10,33,22.40
2017,08,03,10,34,22.40
2017,08,03,10,35,22.40
2017,08,03,10,36,22.40
2017,08,03,10,37,22.30
2017,08,03,10,38,22.30
2017,08,03,10,39,22.30
2017,08,03,10,40,22.30
2017,08,03,10,41,22.30
2017,08,03,10,42,22.30
2017,08,03,10,43,22.40
2017,08,03,10,44,22.40
2017,08,03,10,45,22.40
2017,08,03,10,46,22.50
2017,08,03,10,47,22.50
2017,08,03,10,48,22.60
2017,08,03,10,49,22.60
2017,08,03,10,50,22.70
2017,08,03,10,51,22.80
2017,08,03,10,52,22.80
2017,08,03,10,53,22.90
2017,08,03,10,54,22.90
2017,08,03,10,55,23.00
2017,08,03,10,56,23.00
2017,08,03,10,57,23.00
2017,08,03,10,58,23.00
2017,08,03,10,59,23.10
2017,08,03,11,00,23.00
2017,08,03,11,01,23.00
2017,08,03,11,02,23.00
2017,08,03,11,03,23.10
2017,08,03,11,04,23.10
2017,08,03,11,05,23.10
2017,08,03,11,06,23.10
2017,08,03,11,07,23.10
2017,08,03,11,08,23.00
2017,08,03,11,09,23.00
2017,08,03,11,10,23.00
2017,08,03,11,11,22.90
2017,08,03,11,12,22.90
2017,08,03,11,13,22.90
2017,08,03,11,14,22.90
2017,08,03,11,15,22.90
2017,08,03,11,16,22.90
2017,08,03,11,17,22.90
2017,08,03,11,18,22.80
2017,08,03,11,19,22.80
2017,08,03,11,20,22.80
2017,08,03,11,21,22.80
2017,08,03,11,22,22.80
2017,08,03,11,23,22.80
2017,08,03,11,24,22.90
2017,08,03,11,25,22.90
2017,08,03,11,26,23.00
2017,08,03,11,27,23.00
2017,08,03,11,28,22.90
2017,08,03,11,29,22.90
2017,08,03,11,30,23.00
2017,08,03,11,31,23.00
2017,08,03,11,32,23.10
2017,08,03,11,33,23.20
2017,08,03,11,34,23.30
2017,08,03,11,35,23.30
2017,08,03,11,36,23.30
2017,08,03,11,37,23.40
2017,08,03,11,38,23.40
2017,08,03,11,39,23.40
2017,08,03,11,40,23.50
2017,08,03,11,41,23.50
2017,08,03,11,42,23.50
2017,08,03,11,43,23.60
2017,08,03,11,44,23.60
2017,08,03,11,45,23.70
2017,08,03,11,46,23.80
2017,08,03,11,47,23.80
2017,08,03,11,48,23.90
2017,08,03,11,49,24.00
2017,08,03,11,50,24.10
2017,08,03,11,51,24.10
2017,08,03,11,52,24.20
2017,08,03,11,53,24.30
2017,08,03,11,54,24.30
2017,08,03,11,55,24.40
2017,08,03,11,56,24.40
2017,08,03,11,57,24.30
2017,08,03,11,58,24.30
2017,08,03,11,59,24.30
2017,08,03,12,00,24.20
2017,08,03,12,01,24.20
2017,08,03,12,02,24.30
2017,08,03,12,03,24.30
2017,08,03,12,04,24.40
2017,08,03,12,05,24.40
2017,08,03,12,06,24.50
2017,08,03,12,07,24.50
2017,08,03,12,08,24.50
2017,08,03,12,09,24.50
2017,08,03,12,10,24.50
2017,08,03,12,11,24.40
2017,08,03,12,12,24.40
2017,08,03,12,13,24.30
2017,08,03,12,14,24.30
2017,08,03,12,15,24.30
2017,08,03,12,16,24.30
2017,08,03,12,17,24.40
2017,08,03,12,18,24.40
2017,08,03,12,19,24.50
2017,08,03,12,20,24.70
2017,08,03,12,21,24.70
2017,08,03,12,22,24.80
2017,08,03,12,23,24.90
2017,08,03,12,24,25.00
2017,08,03,12,25,25.10
2017,08,03,12,26,25.20
2017,08,03,12,27,25.20
2017,08,03,12,28,25.10
2017,08,03,12,29,25.10
2017,08,03,12,30,25.10
2017,08,03,12,31,25.10
2017,08,03,12,32,25.20
2017,08,03,12,33,25.20
2017,08,03,12,34,25.20
2017,08,03,12,35,25.10
2017,08,03,12,36,25.10
2017,08,03,12,37,25.10
2017,08,03,12,38,25.10
2017,08,03,12,39,25.20
2017,08,03,12,40,25.20
2017,08,03,12,41,25.20
2017,08,03,12,42,25.20
2017,08,03,12,43,25.20
2017,08,03,12,44,25.20
2017,08,03,12,45,25.20
2017,08,03,12,46,25.20
2017,08,03,12,47,25.20
2017,08,03,12,48,25.20
2017,08,03,12,49,25.20
2017,08,03,12,50,25.20
2017,08,03,12,51,25.30
2017,08,03,12,52,25.30
2017,08,03,12,53,25.30
2017,08,03,12,54,25.20
2017,08,03,12,55,25.20
2017,08,03,12,56,25.20
2017,08,03,12,57,25.30
2017,08,03,12,58,25.30
2017,08,03,12,59,25.30
2017,08,03,13,00,25.30
2017,08,03,13,01,25.30
2017,08,03,13,02,25.20
2017,08,03,13,03,25.20
2017,08,03,13,04,25.20
2017,08,03,13,05,25.20
2017,08,03,13,06,25.30
2017,08,03,13,07,25.30
2017,08,03,13,08,25.30
2017,08,03,13,09,25.30
2017,08,03,13,10,25.30
2017,08,03,13,11,25.30
2017,08,03,13,12,25.40
2017,08,03,13,13,25.40
2017,08,03,13,14,25.40
2017,08,03,13,15,25.40
2017,08,03,13,16,25.50
2017,08,03,13,17,25.50
2017,08,03,13,18,25.50
2017,08,03,13,19,25.60
2017,08,03,13,20,25.60
2017,08,03,13,21,25.70
2017,08,03,13,22,25.70
2017,08,03,13,23,25.70
2017,08,03,13,24,25.80
2017,08,03,13,25,25.80
2017,08,03,13,26,25.90
2017,08,03,13,27,26.00
2017,08,03,13,28,26.10
2017,08,03,13,29,26.20
2017,08,03,13,30,26.30
2017,08,03,13,31,26.30
2017,08,03,13,32,26.30
2017,08,03,13,33,26.40
2017,08,03,13,34,26.40
2017,08,03,13,35,26.40
2017,08,03,13,36,26.30
2017,08,03,13,37,26.30
2017,08,03,13,38,26.20
2017,08,03,13,39,26.20
2017,08,03,13,40,26.20
2017,08,03,13,41,26.20
2017,08,03,13,42,26.20
2017,08,03,13,43,26.20
2017,08,03,13,44,26.20
2017,08,03,13,45,26.20
2017,08,03,13,46,26.10
2017,08,03,13,47,26.10
2017,08,03,13,48,26.10
2017,08,03,13,49,26.10
2017,08,03,13,50,26.20
2017,08,03,13,51,26.30
2017,08,03,13,52,26.40
2017,08,03,13,53,26.50
2017,08,03,13,54,26.70
2017,08,03,13,55,26.70
2017,08,03,13,56,26.80
2017,08,03,13,57,26.80
2017,08,03,13,58,26.90
2017,08,03,13,59,26.90
2017,08,03,14,00,26.90
2017,08,03,14,01,27.00
2017,08,03,14,02,27.00
2017,08,03,14,03,27.10
2017,08,03,14,04,27.20
2017,08,03,14,05,27.20
2017,08,03,14,06,27.30
2017,08,03,14,07,27.30
2017,08,03,14,08,27.30
2017,08,03,14,09,27.30
2017,08,03,14,10,27.20
2017,08,03,14,11,27.10
2017,08,03,14,12,27.10
2017,08,03,14,13,27.10
2017,08,03,14,14,27.10
2017,08,03,14,15,27.10
2017,08,03,14,16,27.00
2017,08,03,14,17,26.90
2017,08,03,14,18,26.90
2017,08,03,14,19,27.00
2017,08,03,14,20,27.00
2017,08,03,14,21,27.00
2017,08,03,14,22,27.00
2017,08,03,14,23,26.90
2017,08,03,14,24,26.90
2017,08,03,14,25,26.90
2017,08,03,14,26,26.90
2017,08,03,14,27,26.90
2017,08,03,14,28,26.90
2017,08,03,14,29,27.00
2017,08,03,14,30,27.00
2017,08,03,14,31,27.10
2017,08,03,14,32,27.20
2017,08,03,14,33,27.30
2017,08,03,14,34,27.30
2017,08,03,14,35,27.20
2017,08,03,14,36,27.20
2017,08,03,14,37,27.20
2017,08,03,14,38,27.20
2017,08,03,14,39,27.20
2017,08,03,14,40,27.20
2017,08,03,14,41,27.20
2017,08,03,14,42,27.20
2017,08,03,14,43,27.30
2017,08,03,14,44,27.30
2017,08,03,14,45,27.40
2017,08,03,14,46,27.40
2017,08,03,14,47,27.50
2017,08,03,14,48,27.60
2017,08,03,14,49,27.70
2017,08,03,14,50,27.90
2017,08,03,14,51,28.00
2017,08,03,14,52,28.00
2017,08,03,14,53,28.00
2017,08,03,14,54,28.00
2017,08,03,14,55,27.90
2017,08,03,14,56,27.90
2017,08,03,14,57,27.90
2017,08,03,14,58,27.90
2017,08,03,14,59,27.90
2017,08,03,15,00,27.90
2017,08,03,15,01,27.90
2017,08,03,15,02,28.00
2017,08,03,15,03,28.00
2017,08,03,15,04,28.00
2017,08,03,15,05,28.00
2017,08,03,15,06,28.00
2017,08,03,15,07,28.10
2017,08,03,15,08,28.20
2017,08,03,15,09,28.20
2017,08,03,15,10,28.20
2017,08,03,15,11,28.20
2017,08,03,15,12,28.20
2017,08,03,15,13,28.20
2017,08,03,15,14,28.10
2017,08,03,15,15,28.10
2017,08,03,15,16,28.10
2017,08,03,15,17,28.20
2017,08,03,15,18,28.20
2017,08,03,15,19,28.20
2017,08,03,15,20,28.20
2017,08,03,15,21,28.30
2017,08,03,15,22,28.30
2017,08,03,15,23,28.40
2017,08,03,15,24,28.40
2017,08,03,15,25,28.40
2017,08,03,15,26,28.30
2017,08,03,15,27,28.30
2017,08,03,15,28,28.40
2017,08,03,15,29,28.40
2017,08,03,15,30,28.40
2017,08,03,15,31,28.40
2017,08,03,15,32,28.50
2017,08,03,15,33,28.50
2017,08,03,15,34,28.60
2017,08,03,15,35,28.60
2017,08,03,15,36,28.70
2017,08,03,15,37,28.70
2017,08,03,15,38,28.70
2017,08,03,15,39,28.60
2017,08,03,15,40,28.60
2017,08,03,15,41,28.60
2017,08,03,15,42,28.70
2017,08,03,15,43,28.70
2017,08,03,15,44,28.70
2017,08,03,15,45,28.70
2017,08,03,15,46,28.70
2017,08,03,15,47,28.70
2017,08,03,15,48,28.60
2017,08,03,15,49,28.60
2017,08,03,15,50,28.50
2017,08,03,15,51,28.50
2017,08,03,15,52,28.50
2017,08,03,15,53,28.60
2017,08,03,15,54,28.80
2017,08,03,15,55,28.90
2017,08,03,15,56,28.90
2017,08,03,15,57,28.90
2017,08,03,15,58,28.90
2017,08,03,15,59,28.90
2017,08,03,16,00,28.90
2017,08,03,16,01,28.90
2017,08,03,16,02,28.90
2017,08,03,16,03,28.80
2017,08,03,16,04,28.90
2017,08,03,16,05,28.90
2017,08,03,16,06,28.90
2017,08,03,16,07,28.90
2017,08,03,16,08,29.00
2017,08,03,16,09,29.00
2017,08,03,16,10,29.00
2017,08,03,16,11,29.00
2017,08,03,16,12,28.90
2017,08,03,16,13,28.90
2017,08,03,16,14,29.00
2017,08,03,16,15,29.00
2017,08,03,16,16,29.10
2017,08,03,16,17,29.20
2017,08,03,16,18,29.20
2017,08,03,16,19,29.30
2017,08,03,16,20,29.40
2017,08,03,16,21,29.50
2017,08,03,16,22,29.60
2017,08,03,16,23,29.60
2017,08,03,16,24,29.70
2017,08,03,16,25,29.70
2017,08,03,16,26,29.70
2017,08,03,16,27,29.70
2017,08,03,16,28,29.70
2017,08,03,16,29,29.80
2017,08,03,16,30,29.80
2017,08,03,16,31,29.90
2017,08,03,16,32,30.00
2017,08,03,16,33,30.10
2017,08,03,16,34,30.10
2017,08,03,16,35,30.20
2017,08,03,16,36,30.20
2017,08,03,16,37,30.20
2017,08,03,16,38,30.20
2017,08,03,16,39,30.20
2017,08,03,16,40,30.20
2017,08,03,16,41,30.20
2017,08,03,16,42,30.20
2017,08,03,16,43,30.20
2017,08,03,16,44,30.20
2017,08,03,16,45,30.20
2017,08,03,16,46,30.20
2017,08,03,16,47,30.20
2017,08,03,16,48,30.20
2017,08,03,16,49,30.30
2017,08,03,16,50,30.30
2017,08,03,16,51,30.40
2017,08,03,16,52,30.50
2017,08,03,16,53,30.50
2017,08,03,16,54,30.50
2017,08,03,16,55,30.40
2017,08,03,16,56,30.40
2017,08,03,16,57,30.30
2017,08,03,16,58,30.30
2017,08,03,16,59,30.30
2017,08,03,17,00,30.20
2017,08,03,17,01,30.20
2017,08,03,17,02,30.20
2017,08,03,17,03,30.20
2017,08,03,17,04,30.20
2017,08,03,17,05,30.30
2017,08,03,17,06,30.30
2017,08,03,17,07,30.30
2017,08,03,17,08,30.30
2017,08,03,17,09,30.40
2017,08,03,17,10,30.40
2017,08,03,17,11,30.40
2017,08,03,17,12,30.50
2017,08,03,17,13,30.50
2017,08,03,17,14,30.50
2017,08,03,17,15,30.60
2017,08,03,17,16,30.60
2017,08,03,17,17,30.60
2017,08,03,17,18,30.60
2017,08,03,17,19,30.60